Regional Weather Roundup
Issued by NWS Glasgow, MT

Home | Current Version | Previous Version | Text Only | Print | Product List | Glossary On
Versions: 1 2 3 4 5 6 7 8 9 10 11 12 13 14 15 16 17 18 19 20 21 22 23 24 25 26 27 28 29 30 31 32 33 34 35 36 37 38 39 40 41 42 43 44 45 46 47 48 49 50
000
ASUS45 KGGW 301015
RWRGGW
HOURLY REGIONAL WEATHER ROUNDUP FOR NORTHEAST MONTANA
NATIONAL WEATHER SERVICE GLASGOW MONTANA
400 AM MDT MON MAY 30 2016

NOTE: "FAIR" INDICATES FEW OR NO CLOUDS BELOW 12,000 FEET WITH NO
SIGNIFICANT WEATHER AND/OR OBSTRUCTIONS TO VISISBILITY.

NORTHEAST MONTANA


CITY           SKY/WX    TMP DP  RH WIND       PRES   REMARKS
GLASGOW        CLOUDY    54  46  74 VRB7      29.90R
PLENTYWOOD       N/A     51  37  58 SE2         N/A
WOLF POINT     CLOUDY    49  44  83 CALM      29.91R
JORDAN           N/A     59  46  62 VRB3      29.92R
WINNETT          N/A     56  46  69 SW3G16      N/A
SIDNEY         MOCLDY    50  43  76 NW6       29.89F
GLENDIVE       CLOUDY    52  43  71 CALM      29.92S
OPHEIM           N/A     55  34  44 S1        29.70R

FORT PECK REPORTS


CITY           SKY/WX    TMP DP  RH WIND       PRES   REMARKS
FORT PECK        N/A     60  45  57 S8G24       N/A
THE PINES        N/A     61  44  53 S6G17       N/A

SOUTHEAST MONTANA


CITY           SKY/WX    TMP DP  RH WIND       PRES   REMARKS
BILLINGS       LGT RAIN  53  47  79 N9        29.99R
MILES CITY     LGT RAIN  57  48  72 NW15      29.92R
BAKER          MOCLDY    53  47  79 CALM      29.92R
LIVINGSTON     CLOUDY    53  39  59 W6        30.02R

CENTRAL MONTANA


CITY           SKY/WX    TMP DP  RH WIND       PRES   REMARKS
HAVRE          CLOUDY    51  46  83 W9        29.93R
LEWISTOWN      CLOUDY    51  46  83 SE8       29.97F
GREAT FALLS    CLOUDY    48  41  76 SW13      29.97S
CUT BANK       MOCLDY    43  41  93 NW18G25   30.02R
HELENA         CLOUDY    51  41  68 CALM      30.02S
BUTTE          CLOUDY    40  35  83 S3        30.09R
BOZEMAN        CLOUDY    50  43  77 W8        30.04R

WESTERN MONTANA


CITY           SKY/WX    TMP DP  RH WIND       PRES   REMARKS
MISSOULA       CLOUDY    50  46  86 E3        30.07R
KALISPELL      NOT AVBL

NORTH DAKOTA


CITY           SKY/WX    TMP DP  RH WIND       PRES   REMARKS
WILLISTON      PTCLDY    46  41  82 CALM      29.90S
DICKINSON      CLEAR     48  44  86 S8        29.90S
MINOT          CLEAR     52  47  83 S3        29.89S
BISMARCK       CLEAR     52  51  97 E5        29.92S

SOUTHERN SASKATCHEWAN


CITY           SKY/WX    TMP DP  RH WIND       PRES   REMARKS
REGINA         PTCLDY    48  43  81 E6        29.86
MOOSE JAW      PTCLDY    46  43  87 CALM      29.86
ESTEVAN        NOT AVBL
SWIFT CURRENT  CLEAR     50  43  76 SW9       29.85S




USA.gov is the U.S. government's official web portal to all federal, state and local government web resources and services.